Hourly Data Report for December 18, 2002

TORONTO CITY
ONTARIO

43°40'00.000" N
79°24'00.000" W
112.50 m
6158355
71508
XTO

Download Data

Hourly Data (December 2002)
Hourly Data Report for December 18, 2002
TIME
LST
Temp Definition
°C
Dew Point Definition
°C
Rel Hum Definition
%
Precip. Amount Definition
mm

Wind Dir Definition
10's deg

Wind Spd Definition
km/h
Visibility Definition
km
Stn Press Definition
kPa
Hmdx Definition


Wind Chill Definition


Weather Definition


00:00 -1.3 -5.2 75   LegendMM LegendMM LegendMM 101.60     LegendNANA
01:00 -1.1 -5.2 74   LegendMM LegendMM LegendMM 101.57     LegendNANA
02:00 -1.1 -4.7 76   LegendMM LegendMM LegendMM 101.56     LegendNANA
03:00 -0.7 -5.2 72   LegendMM LegendMM LegendMM 101.52     LegendNANA
04:00 -0.6 -5.7 68   LegendMM LegendMM LegendMM 101.47     LegendNANA
05:00 -0.7 -6.0 67   LegendMM LegendMM LegendMM 101.38     LegendNANA
06:00 -0.5 -5.2 70   LegendMM LegendMM LegendMM 101.37     LegendNANA
07:00 -0.7 -6.1 67   LegendMM LegendMM LegendMM 101.42     LegendNANA
08:00 -0.7 -7.2 61   LegendMM LegendMM LegendMM 101.35     LegendNANA
09:00 0.2 -6.5 61   LegendMM LegendMM LegendMM 101.33     LegendNANA
10:00 0.9 -5.4 63   LegendMM LegendMM LegendMM 101.28     LegendNANA
11:00 1.3 -4.8 64   LegendMM LegendMM LegendMM 101.21     LegendNANA
12:00 1.3 -4.4 66   LegendMM LegendMM LegendMM 101.11     LegendNANA
13:00 1.4 -4.5 65   LegendMM LegendMM LegendMM 101.02     LegendNANA
14:00 1.1 -4.2 68   LegendMM LegendMM LegendMM 100.96     LegendNANA
15:00 1.7 -4.1 65   LegendMM LegendMM LegendMM 100.88     LegendNANA
16:00 2.0 -4.2 63   LegendMM LegendMM LegendMM 100.88     LegendNANA
17:00 2.5 -3.3 66   LegendMM LegendMM LegendMM 100.81     LegendNANA
18:00 2.7 -1.9 72   LegendMM LegendMM LegendMM 100.77     LegendNANA
19:00 3.1 -1.2 73   LegendMM LegendMM LegendMM 100.72     LegendNANA
20:00 3.5 -0.4 76   LegendMM LegendMM LegendMM 100.63     LegendNANA
21:00 3.6 0.7 81   LegendMM LegendMM LegendMM 100.56     LegendNANA
22:00 3.5 1.1 84   LegendMM LegendMM LegendMM 100.49     LegendNANA
23:00 3.9 1.3 83   LegendMM LegendMM LegendMM 100.42     LegendNANA

Notes on Data Quality.

Legend

  • E = Estimated
  • M = Missing
  • NA = Not Available*
  • [empty] = Indicates an unobserved value
Date modified: